Time,TemperatureF,DewpointF,PressureIn,WindDirection,WindDirectionDegrees,WindSpeedMPH,WindSpeedGustMPH,Humidity,HourlyPrecipIn,Conditions,Clouds,dailyrainin,SoftwareType,DateUTC
2013-04-22 00:00:00,29.9,15.3,30.60,North,355,0.0,7.0,54,0.00,,,0.00,Wunderground v.1.15,2013-04-22 04:00:00,
2013-04-22 00:05:00,29.8,15.6,30.60,North,355,0.0,7.0,55,0.00,,,0.00,Wunderground v.1.15,2013-04-22 04:05:00,
2013-04-22 00:10:00,29.7,15.1,30.59,North,355,0.0,7.0,54,0.00,,,0.00,Wunderground v.1.15,2013-04-22 04:10:00,
2013-04-22 00:15:00,29.8,15.2,30.59,North,355,0.0,7.0,54,0.00,,,0.00,Wunderground v.1.15,2013-04-22 04:15:00,
2013-04-22 00:20:00,29.8,15.6,30.59,North,355,0.0,7.0,55,0.00,,,0.00,Wunderground v.1.15,2013-04-22 04:20:00,
2013-04-22 00:25:00,29.8,16.4,30.59,North,355,0.0,7.0,57,0.00,,,0.00,Wunderground v.1.15,2013-04-22 04:25:00,
2013-04-22 00:30:00,29.8,16.4,30.59,North,355,0.0,7.0,57,0.00,,,0.00,Wunderground v.1.15,2013-04-22 04:30:00,
2013-04-22 00:35:00,29.8,16.4,30.59,North,355,0.0,7.0,57,0.00,,,0.00,Wunderground v.1.15,2013-04-22 04:35:00,
2013-04-22 00:40:00,29.7,16.3,30.59,North,355,0.0,7.0,57,0.00,,,0.00,Wunderground v.1.15,2013-04-22 04:40:00,
2013-04-22 00:45:00,29.7,16.7,30.58,North,355,0.0,7.0,58,0.00,,,0.00,Wunderground v.1.15,2013-04-22 04:45:00,
2013-04-22 00:50:00,29.6,16.6,30.58,North,355,0.0,7.0,58,0.00,,,0.00,Wunderground v.1.15,2013-04-22 04:50:00,
2013-04-22 01:00:00,29.3,17.1,30.58,North,355,0.0,7.0,60,0.00,,,0.00,Wunderground v.1.15,2013-04-22 05:00:00,
2013-04-22 08:55:00,40.4,28.4,30.54,SSE,151,0.0,0.0,62,0.00,,,0.00,Wunderground v.1.15,2013-04-22 12:55:00,
2013-04-22 09:05:00,41.0,28.2,30.55,SSE,156,1.0,4.0,60,0.00,,,0.00,Wunderground v.1.15,2013-04-22 13:05:00,
2013-04-22 09:10:00,41.2,27.9,30.54,South,182,2.0,2.0,59,0.00,,,0.00,Wunderground v.1.15,2013-04-22 13:10:00,
2013-04-22 09:15:00,41.6,28.3,30.54,South,175,2.0,2.0,59,0.00,,,0.00,Wunderground v.1.15,2013-04-22 13:15:00,
2013-04-22 09:20:00,42.3,29.4,30.54,SSE,153,1.0,1.0,60,0.00,,,0.00,Wunderground v.1.15,2013-04-22 13:20:00,
2013-04-22 09:30:00,43.3,30.3,30.54,SE,140,1.0,1.0,60,0.00,,,0.00,Wunderground v.1.15,2013-04-22 13:30:00,
2013-04-22 09:35:00,44.0,30.6,30.54,SSE,148,1.0,6.0,59,0.00,,,0.00,Wunderground v.1.15,2013-04-22 13:35:00,
2013-04-22 09:40:00,44.7,30.8,30.54,SSE,148,2.0,6.0,58,0.00,,,0.00,Wunderground v.1.15,2013-04-22 13:40:00,
2013-04-22 09:45:00,45.2,31.7,30.54,SSW,209,1.0,6.0,59,0.00,,,0.00,Wunderground v.1.15,2013-04-22 13:45:00,
2013-04-22 09:50:00,45.9,31.1,30.53,SSW,194,1.0,6.0,56,0.00,,,0.00,Wunderground v.1.15,2013-04-22 13:50:00,
2013-04-22 09:55:00,46.8,31.5,30.53,SSE,149,2.0,7.0,55,0.00,,,0.00,Wunderground v.1.15,2013-04-22 13:55:00,
2013-04-22 10:10:00,47.9,30.1,30.53,SE,141,3.0,10.0,50,0.00,,,0.00,Wunderground v.1.15,2013-04-22 14:10:00,
2013-04-22 10:15:00,48.1,30.8,30.53,South,184,5.0,5.0,51,0.00,,,0.00,Wunderground v.1.15,2013-04-22 14:15:00,
2013-04-22 10:20:00,48.8,31.5,30.53,SSE,153,4.0,6.0,51,0.00,,,0.00,Wunderground v.1.15,2013-04-22 14:20:00,
2013-04-22 10:25:00,49.0,30.1,30.53,SSE,161,4.0,4.0,48,0.00,,,0.00,Wunderground v.1.15,2013-04-22 14:25:00,
2013-04-22 10:30:00,49.1,29.2,30.52,South,180,4.0,5.0,46,0.00,,,0.00,Wunderground v.1.15,2013-04-22 14:30:00,
2013-04-22 10:35:00,49.2,29.8,30.52,South,178,4.0,6.0,47,0.00,,,0.00,Wunderground v.1.15,2013-04-22 14:35:00,
2013-04-22 10:40:00,49.5,29.6,30.52,SE,145,5.0,6.0,46,0.00,,,0.00,Wunderground v.1.15,2013-04-22 14:40:00,
2013-04-22 10:45:00,50.2,30.2,30.52,South,182,4.0,4.0,46,0.00,,,0.00,Wunderground v.1.15,2013-04-22 14:45:00,
2013-04-22 10:55:00,50.3,29.2,30.51,SSE,161,5.0,6.0,44,0.00,,,0.00,Wunderground v.1.15,2013-04-22 14:55:00,
2013-04-22 11:00:00,51.0,29.8,30.52,SSE,151,5.0,12.0,44,0.00,,,0.00,Wunderground v.1.15,2013-04-22 15:00:00,
2013-04-22 11:05:00,51.4,29.6,30.51,SE,140,4.0,12.0,43,0.00,,,0.00,Wunderground v.1.15,2013-04-22 15:05:00,
2013-04-22 11:10:00,52.0,31.3,30.51,South,172,3.0,6.0,45,0.00,,,0.00,Wunderground v.1.15,2013-04-22 15:10:00,
2013-04-22 11:15:00,52.3,31.0,30.51,SW,217,3.0,6.0,44,0.00,,,0.00,Wunderground v.1.15,2013-04-22 15:15:00,
2013-04-22 11:20:00,51.9,30.1,30.51,South,182,4.0,4.0,43,0.00,,,0.00,Wunderground v.1.15,2013-04-22 15:20:00,
2013-04-22 11:25:00,52.2,29.8,30.51,South,180,5.0,5.0,42,0.00,,,0.00,Wunderground v.1.15,2013-04-22 15:25:00,
2013-04-22 11:35:00,52.1,27.9,30.51,South,173,5.0,9.0,39,0.00,,,0.00,Wunderground v.1.15,2013-04-22 15:35:00,
2013-04-22 11:40:00,52.0,29.0,30.50,SSE,149,6.0,10.0,41,0.00,,,0.00,Wunderground v.1.15,2013-04-22 15:40:00,
2013-04-22 11:45:00,52.4,30.0,30.50,SSE,166,5.0,10.0,42,0.00,,,0.00,Wunderground v.1.15,2013-04-22 15:45:00,
2013-04-22 11:50:00,52.6,29.5,30.50,SSE,167,5.0,9.0,41,0.00,,,0.00,Wunderground v.1.15,2013-04-22 15:50:00,
2013-04-22 11:55:00,52.5,28.8,30.50,SSE,156,6.0,9.0,40,0.00,,,0.00,Wunderground v.1.15,2013-04-22 15:55:00,
2013-04-22 12:00:00,52.8,30.9,30.50,SSW,206,6.0,6.0,43,0.00,,,0.00,Wunderground v.1.15,2013-04-22 16:00:00,
2013-04-22 12:05:00,52.6,29.5,30.50,South,169,4.0,6.0,41,0.00,,,0.00,Wunderground v.1.15,2013-04-22 16:05:00,
2013-04-22 12:10:00,53.3,30.8,30.49,SSE,163,4.0,4.0,42,0.00,,,0.00,Wunderground v.1.15,2013-04-22 16:10:00,
2013-04-22 12:20:00,54.1,32.1,30.49,SSE,167,3.0,10.0,43,0.00,,,0.00,Wunderground v.1.15,2013-04-22 16:20:00,
2013-04-22 12:25:00,53.8,31.8,30.49,SSW,213,4.0,10.0,43,0.00,,,0.00,Wunderground v.1.15,2013-04-22 16:25:00,
2013-04-22 12:30:00,53.6,32.8,30.48,SSE,162,4.0,6.0,45,0.00,,,0.00,Wunderground v.1.15,2013-04-22 16:30:00,
2013-04-22 12:35:00,53.3,30.8,30.48,South,184,5.0,6.0,42,0.00,,,0.00,Wunderground v.1.15,2013-04-22 16:35:00,
2013-04-22 12:40:00,53.4,29.7,30.48,SSW,192,5.0,6.0,40,0.00,,,0.00,Wunderground v.1.15,2013-04-22 16:40:00,
2013-04-22 12:45:00,53.9,31.9,30.48,SSW,213,4.0,6.0,43,0.00,,,0.00,Wunderground v.1.15,2013-04-22 16:45:00,
2013-04-22 12:50:00,53.7,31.7,30.47,SW,215,4.0,6.0,43,0.00,,,0.00,Wunderground v.1.15,2013-04-22 16:50:00,
2013-04-22 13:00:00,54.6,31.9,30.47,SSW,201,4.0,4.0,42,0.00,,,0.00,Wunderground v.1.15,2013-04-22 17:00:00,
2013-04-22 13:05:00,54.9,31.6,30.46,South,175,4.0,6.0,41,0.00,,,0.00,Wunderground v.1.15,2013-04-22 17:05:00,
2013-04-22 13:10:00,55.0,32.9,30.46,SSW,207,3.0,7.0,43,0.00,,,0.00,Wunderground v.1.15,2013-04-22 17:10:00,
2013-04-22 13:15:00,55.3,33.2,30.46,SSE,166,4.0,7.0,43,0.00,,,0.00,Wunderground v.1.15,2013-04-22 17:15:00,
2013-04-22 13:20:00,55.6,30.4,30.45,ESE,109,3.0,6.0,38,0.00,,,0.00,Wunderground v.1.15,2013-04-22 17:20:00,
2013-04-22 13:25:00,55.8,31.2,30.45,SSE,160,3.0,6.0,39,0.00,,,0.00,Wunderground v.1.15,2013-04-22 17:25:00,
2013-04-22 13:30:00,55.7,31.1,30.45,SE,125,3.0,3.0,39,0.00,,,0.00,Wunderground v.1.15,2013-04-22 17:30:00,
2013-04-22 13:40:00,56.1,31.5,30.44,SE,136,2.0,6.0,39,0.00,,,0.00,Wunderground v.1.15,2013-04-22 17:40:00,
2013-04-22 13:45:00,56.0,32.0,30.44,SSE,161,2.0,6.0,40,0.00,,,0.00,Wunderground v.1.15,2013-04-22 17:45:00,
2013-04-22 13:50:00,56.9,32.8,30.44,SE,139,3.0,8.0,40,0.00,,,0.00,Wunderground v.1.15,2013-04-22 17:50:00,
2013-04-22 13:55:00,56.0,30.7,30.44,South,182,3.0,8.0,38,0.00,,,0.00,Wunderground v.1.15,2013-04-22 17:55:00,
2013-04-22 14:00:00,56.4,31.1,30.43,SSE,168,2.0,6.0,38,0.00,,,0.00,Wunderground v.1.15,2013-04-22 18:00:00,
2013-04-22 14:05:00,56.5,29.8,30.43,SSE,160,2.0,6.0,36,0.00,,,0.00,Wunderground v.1.15,2013-04-22 18:05:00,
2013-04-22 14:10:00,56.7,29.3,30.42,NNE,14,3.0,3.0,35,0.00,,,0.00,Wunderground v.1.15,2013-04-22 18:10:00,
2013-04-22 14:20:00,56.4,28.3,30.43,SSE,155,4.0,4.0,34,0.00,,,0.00,Wunderground v.1.15,2013-04-22 18:20:00,
2013-04-22 14:25:00,57.4,30.6,30.42,SW,219,3.0,6.0,36,0.00,,,0.00,Wunderground v.1.15,2013-04-22 18:25:00,
2013-04-22 14:30:00,57.4,31.3,30.42,SE,146,3.0,6.0,37,0.00,,,0.00,Wunderground v.1.15,2013-04-22 18:30:00,
2013-04-22 14:35:00,57.3,29.1,30.42,SSE,161,3.0,6.0,34,0.00,,,0.00,Wunderground v.1.15,2013-04-22 18:35:00,
2013-04-22 14:40:00,57.8,30.3,30.42,SSE,165,3.0,7.0,35,0.00,,,0.00,Wunderground v.1.15,2013-04-22 18:40:00,
2013-04-22 14:45:00,57.5,28.6,30.41,SE,139,4.0,7.0,33,0.00,,,0.00,Wunderground v.1.15,2013-04-22 18:45:00,
2013-04-22 14:50:00,57.8,32.3,30.41,SSE,154,3.0,3.0,38,0.00,,,0.00,Wunderground v.1.15,2013-04-22 18:50:00,
2013-04-22 15:00:00,57.9,30.4,30.41,SSW,200,2.0,2.0,35,0.00,,,0.00,Wunderground v.1.15,2013-04-22 19:00:00,
2013-04-22 15:05:00,58.6,34.3,30.41,South,181,3.0,3.0,40,0.00,,,0.00,Wunderground v.1.15,2013-04-22 19:05:00,
2013-04-22 15:10:00,59.3,33.0,30.40,SSE,159,1.0,1.0,37,0.00,,,0.00,Wunderground v.1.15,2013-04-22 19:10:00,